[[{"header":{"parameterUnit":"m.s-1","parameterCategory":1,"la1":30.2991,"la2":30.254,"lo1":-89.0895,"lo2":-89.0444,"dy":0.0017,"dx":0.0017,"nx":28,"ny":28,"refTime":"2025-03-22T03:00:00:Z","depth":0,"parameterNumber":2,"parameterNumberName":"U-component_of_WINDS"},"data":[0,0,0,0,0,0,0,0,0,0,0,0,0,0,0,0,0,0,0,0,0,0,0,0,0,0,0,0,0,0,0,0,0,0,0,0,0,0,0,0,0,0,0,0,0,0,0,0,0,0,0,0,0,0,0,0,0,0,4.7487,4.7489,0,4.7698,4.7701,4.7703,4.7688,4.7684,4.7681,4.7678,4.7892,4.7901,4.7909,0,0,0,0,0,0,0,0,0,0,0,0,0,4.7064,4.7072,4.7487,4.7489,4.7492,4.7698,4.7701,4.7704,4.7688,4.7684,4.768,4.7677,4.7889,4.79,4.791,0,0,0,0,0,0,0,0,0,0,0,0,0,4.7259,4.7075,4.7486,4.7509,4.7513,4.7697,4.7701,4.7704,4.7689,4.7684,4.7679,4.7675,4.7886,4.7899,4.7911,4.8085,0,0,4.7951,4.7956,0,0,0,0,0,0,0,0,4.7248,4.7274,4.7503,4.7508,4.7513,4.7662,4.763,4.7832,4.769,4.7622,4.7678,4.7673,4.7819,4.7837,4.7887,4.8095,4.8105,4.7952,4.796,4.7965,4.7969,0,0,0,0,0,0,0,4.7234,4.7265,4.757,4.7506,4.7512,4.7507,4.7529,4.7668,4.7744,4.7628,4.7627,4.7652,4.7821,4.7875,4.7892,4.8108,4.7952,4.7963,4.7971,4.7976,4.8463,4.8468,0,0,0,0,0,0,4.7216,4.7254,4.7563,4.7577,4.7366,4.7518,4.7544,4.7619,4.7743,4.7757,4.7656,4.7651,4.7855,4.7877,4.79,4.8107,4.7965,4.7977,4.7985,4.8458,4.8464,4.847,0,0,0,0,0,0,4.7207,4.7244,4.7555,4.7415,4.7454,4.7531,4.7615,4.7625,4.7679,4.7765,4.7777,4.7698,4.7852,4.7881,4.8038,4.8114,4.7983,4.7995,4.8452,4.846,4.8467,4.8525,0,0,0,0,0,0,4.7195,4.7241,4.7309,4.7417,4.7462,4.7692,4.762,4.7633,4.7702,4.7697,4.7807,4.782,4.7851,4.8019,4.8051,4.8129,4.8005,4.8445,4.8455,4.8464,4.8517,4.8534,4.8549,0,0,0,0,0,4.718,4.7318,4.7313,4.735,4.7549,4.7696,4.7722,4.7755,4.7708,4.7776,4.783,4.7817,4.8101,4.8035,4.8071,4.8155,4.844,4.8452,4.8464,4.851,4.8531,4.8548,0,0,0,0,0,0,4.7217,4.7332,4.7328,4.7505,4.7591,4.7693,4.778,4.7777,4.7877,4.7868,4.7904,4.7929,4.8085,4.8136,4.806,4.8327,4.8264,4.8284,4.8287,4.8308,4.8323,4.8306,4.8016,0,0,0,0,0,4.7246,4.7357,4.7452,4.7598,4.7642,4.7704,4.7769,4.7787,4.7877,4.7913,4.7978,4.8065,4.8173,4.8244,4.8349,4.8525,4.8546,4.86,4.8616,4.8629,4.8644,4.8735,4.8759,4.8508,4.8508,4.8508,0,0,4.7306,4.7383,4.7451,4.7608,4.7676,4.7788,4.7734,4.7856,4.7938,4.7931,4.8081,4.8133,4.8232,4.8397,4.8474,4.8445,4.8718,4.8644,4.8653,4.8661,4.8749,4.8773,4.8794,4.8516,4.8514,4.8513,0,0,4.7472,4.7544,4.7671,4.7741,4.7845,4.7885,4.7915,4.8018,4.8052,4.8204,4.8199,4.8297,4.8485,4.8553,4.8613,4.8802,4.8791,4.8835,4.8917,4.9006,4.9026,4.9043,4.9105,4.9128,4.8851,4.8851,4.8851,0,4.7533,4.7703,4.7737,4.7859,4.7925,4.7925,4.8052,4.8117,4.825,4.8295,4.8262,4.8494,4.8561,4.8739,4.8785,4.8836,4.8868,4.8821,4.902,4.9038,4.9055,4.9115,4.9139,4.8855,4.8855,4.8854,4.8854,0,4.777,4.7888,4.7978,4.8106,4.8183,4.8307,4.8358,4.8432,4.8443,4.8485,4.8637,4.8717,4.8836,4.8881,4.8893,4.906,4.9038,4.9013,4.895,4.9083,4.9139,4.9162,4.8861,4.886,4.8859,4.8858,0,0,4.7965,4.8108,4.814,4.8196,4.831,4.84,4.8522,4.8638,4.8699,4.8791,4.8891,4.9048,4.9023,4.9091,4.9111,4.919,4.9327,4.9153,4.9156,4.9178,4.951,4.9525,4.9552,4.9323,4.9327,4.9331,4.95,0,4.8138,4.8356,4.8388,4.8579,4.8684,4.8684,4.879,4.887,4.8912,4.9007,4.9054,4.9162,4.9125,4.9164,4.9242,4.9294,4.9393,4.9283,4.9412,4.9416,4.9383,4.9582,4.96,4.9756,4.9523,4.9527,4.953,0,4.837,4.8466,4.8666,4.8761,4.8807,4.8902,4.9008,4.91,4.9189,4.9214,4.9289,4.9298,4.9421,4.9356,4.9524,4.9448,4.9503,4.9536,4.9543,4.9553,4.9478,4.9592,4.9807,4.9828,4.9566,4.9563,4.956,0,4.8484,4.8665,4.8806,4.8855,4.8971,4.9036,4.9088,4.9173,4.9239,4.9332,4.9374,4.9481,4.9538,4.9619,4.9656,4.9606,4.982,4.9759,4.984,4.9839,4.9882,4.9878,5.0103,4.9926,4.9926,4.9925,4.9925,0,4.8672,4.8793,4.8859,4.8945,4.908,4.9116,4.9248,4.9297,4.9372,4.9466,4.9473,4.9561,4.9606,4.97,4.973,4.9861,4.9889,4.9909,4.9915,4.9906,4.9903,4.994,4.9928,4.9931,4.993,4.9929,4.9928,0,4.8821,4.8871,4.9024,4.9121,4.9148,4.9242,4.9324,4.9407,4.9449,4.9567,4.9597,4.9662,4.9772,4.9818,4.9954,4.9974,5.0123,5.0123,5.0092,5.0093,5.017,5.016,5.0423,5.0457,5.0261,5.0263,5.0265,0,4.8935,4.9028,4.9134,4.9198,4.9251,4.9354,4.9421,4.946,4.9529,4.9635,4.9704,4.9814,4.9904,5.008,5.0138,5.0241,5.024,5.0325,5.0255,5.0242,5.0235,5.0227,5.0234,5.0336,5.0338,5.034,5.0341,0,4.913,4.9149,4.9246,4.9351,4.9431,4.9515,4.9597,4.9649,4.9699,4.9776,4.9889,4.9959,5.0096,5.0204,5.031,5.036,5.0358,5.0363,5.0386,5.0376,5.0352,5.0361,5.0122,5.0356,5.0355,5.0354,5.0353,5.0352,4.9262,4.9342,4.9429,4.9535,4.9601,4.9677,4.9757,4.9809,4.9904,5.0018,5.0036,5.0155,5.0238,5.0379,5.0434,5.0526,5.0504,5.0539,5.0547,5.0554,5.0556,5.0342,5.0546,5.0546,5.0545,5.0545,5.0545,0,4.9453,4.9508,4.9606,4.9719,4.9802,4.9795,4.9884,4.9953,5.0058,5.0136,5.0224,5.0351,5.0455,5.0521,5.0625,5.0685,5.0687,5.0711,5.0704,5.0715,5.0573,5.0539,5.0708,5.0708,5.0708,5.0708,5.0708,5.0708,4.9561,4.9695,4.9724,4.989,4.9944,5.0061,5.0112,5.018,5.0242,5.0384,5.047,5.0513,5.0585,5.0693,5.0787,5.0803,5.0839,5.0864,5.0878,5.0743,5.0726,5.0709,5.0678,5.0873,5.0873,5.1012,5.1013,5.1014]},{"header":{"parameterUnit":"m.s-1","parameterCategory":1,"la1":30.2991,"la2":30.254,"lo1":-89.0895,"lo2":-89.0444,"dy":0.0017,"dx":0.0017,"nx":28,"ny":28,"refTime":"2025-03-22T03:00:00:Z","depth":0,"parameterNumber":3,"parameterNumberName":"V-component_of_WINDS"},"data":[0,0,0,0,0,0,0,0,0,0,0,0,0,0,0,0,0,0,0,0,0,0,0,0,0,0,0,0,0,0,0,0,0,0,0,0,0,0,0,0,0,0,0,0,0,0,0,0,0,0,0,0,0,0,0,0,0,0,2.8265,2.8266,0,2.8306,2.8306,2.8307,2.8267,2.8265,2.8263,2.8262,2.8304,2.8306,2.8309,0,0,0,0,0,0,0,0,0,0,0,0,0,2.8151,2.8153,2.8265,2.8266,2.8266,2.8306,2.8306,2.8307,2.8267,2.8265,2.8263,2.8261,2.8303,2.8306,2.8309,0,0,0,0,0,0,0,0,0,0,0,0,0,2.8197,2.8154,2.8265,2.8251,2.825,2.8306,2.8306,2.8307,2.8267,2.8265,2.8263,2.826,2.8302,2.8306,2.8309,2.8381,0,0,2.8321,2.8323,0,0,0,0,0,0,0,0,2.8194,2.8201,2.8253,2.8252,2.8251,2.8279,2.8281,2.8332,2.8268,2.8261,2.8262,2.8259,2.8297,2.8301,2.8314,2.8383,2.8385,2.8322,2.8324,2.8326,2.8327,0,0,0,0,0,0,0,2.8191,2.8199,2.8281,2.8253,2.8253,2.8242,2.8246,2.8291,2.8292,2.8261,2.8258,2.8264,2.8296,2.8311,2.8315,2.8385,2.8321,2.8325,2.8327,2.8329,2.851,2.8513,0,0,0,0,0,0,2.819,2.8197,2.828,2.8282,2.8216,2.8246,2.825,2.8272,2.8291,2.8292,2.8266,2.8262,2.8305,2.831,2.8316,2.8398,2.8326,2.8329,2.8331,2.8508,2.8511,2.8514,0,0,0,0,0,0,2.8187,2.8198,2.8278,2.8239,2.8248,2.825,2.8275,2.8274,2.8288,2.8295,2.8295,2.828,2.8303,2.8311,2.8364,2.8399,2.8331,2.8334,2.8505,2.8509,2.8512,2.8565,0,0,0,0,0,0,2.8184,2.8197,2.8225,2.824,2.8251,2.8327,2.8278,2.8277,2.8295,2.829,2.8308,2.8309,2.8302,2.8359,2.8368,2.8404,2.8337,2.8502,2.8507,2.8511,2.856,2.857,2.8579,0,0,0,0,0,2.818,2.8239,2.8227,2.8237,2.8286,2.8329,2.8335,2.8326,2.8298,2.8326,2.8329,2.8308,2.8394,2.8364,2.8375,2.8412,2.8499,2.8505,2.8511,2.8556,2.8569,2.8579,0,0,0,0,0,0,2.823,2.8241,2.8227,2.8293,2.831,2.8322,2.8356,2.834,2.8366,2.836,2.8348,2.8352,2.8408,2.8415,2.8382,2.848,2.8442,2.845,2.8473,2.8485,2.8494,2.8491,2.8341,0,0,0,0,0,2.8248,2.8282,2.829,2.8347,2.8356,2.8355,2.8373,2.8365,2.8382,2.8389,2.8397,2.8414,2.8445,2.8465,2.8494,2.8561,2.8563,2.8592,2.8601,2.8609,2.8615,2.8648,2.866,2.8532,2.8532,2.8532,0,0,2.8287,2.8297,2.832,2.8357,2.837,2.8404,2.8362,2.8401,2.8426,2.8395,2.8446,2.8452,2.847,2.853,2.8556,2.8538,2.8651,2.8616,2.8622,2.8624,2.8655,2.8667,2.8678,2.8536,2.8535,2.8535,0,0,2.8374,2.8386,2.8433,2.8446,2.8464,2.8462,2.8474,2.8488,2.849,2.854,2.8517,2.8546,2.86,2.8613,2.8627,2.8716,2.8696,2.8725,2.8774,2.8806,2.8816,2.8825,2.8854,2.8865,2.8732,2.8732,2.8732,0,2.842,2.8471,2.846,2.85,2.8516,2.8488,2.8535,2.8548,2.8575,2.8586,2.8565,2.8629,2.864,2.8701,2.8722,2.8735,2.8746,2.8723,2.8815,2.8824,2.8832,2.886,2.8871,2.8736,2.8735,2.8735,2.8735,0,2.8525,2.8561,2.8596,2.8622,2.8642,2.8685,2.8679,2.8701,2.869,2.869,2.8739,2.8751,2.878,2.8794,2.8784,2.8853,2.884,2.8817,2.8779,2.8848,2.8874,2.8884,2.874,2.8739,2.8738,2.8737,0,0,2.8646,2.8662,2.8675,2.8685,2.8702,2.8729,2.877,2.8798,2.8815,2.8834,2.8867,2.8912,2.8889,2.8905,2.8896,2.8925,2.8991,2.8898,2.8898,2.8913,2.9064,2.908,2.9093,2.8978,2.898,2.8982,2.9062,0,2.8732,2.8803,2.8792,2.886,2.8891,2.8864,2.8899,2.8912,2.8913,2.8939,2.8939,2.897,2.894,2.8949,2.8976,2.8977,2.9021,2.8972,2.9007,2.9009,2.9002,2.9106,2.9124,2.9199,2.9072,2.9074,2.9075,0,2.8843,2.8864,2.8934,2.8943,2.8955,2.8987,2.901,2.9036,2.905,2.9048,2.9063,2.9049,2.9088,2.9049,2.9101,2.9068,2.9081,2.9084,2.9087,2.9089,2.9045,2.911,2.9223,2.9233,2.9091,2.909,2.9089,0,2.8921,2.8967,2.9014,2.9024,2.9036,2.9058,2.9064,2.9076,2.9092,2.9112,2.9121,2.9146,2.9159,2.9178,2.9169,2.9142,2.9223,2.9184,2.9221,2.9221,2.9238,2.9237,2.9353,2.925,2.925,2.925,2.9249,0,2.9018,2.9061,2.9049,2.9078,2.9125,2.9112,2.9158,2.9161,2.9171,2.9199,2.9178,2.9204,2.9192,2.9217,2.9211,2.9254,2.9261,2.9259,2.9256,2.926,2.926,2.9268,2.9262,2.9253,2.9252,2.9251,2.9251,0,2.9113,2.9107,2.9156,2.9163,2.9165,2.9199,2.9204,2.923,2.9228,2.9264,2.9271,2.9268,2.9296,2.9289,2.9321,2.9316,2.937,2.9362,2.9365,2.9362,2.9399,2.9395,2.9524,2.9539,2.9427,2.9428,2.9429,0,2.9175,2.9207,2.9216,2.9232,2.924,2.9268,2.9283,2.927,2.9287,2.9304,2.9327,2.9354,2.9374,2.942,2.942,2.9444,2.9435,2.9478,2.9438,2.944,2.9433,2.943,2.9432,2.9486,2.9487,2.9488,2.9489,0,2.9283,2.9278,2.9301,2.9322,2.9341,2.9358,2.9372,2.9387,2.9375,2.9395,2.9423,2.9439,2.9469,2.9495,2.9516,2.9521,2.9503,2.9502,2.9511,2.9514,2.9514,2.9512,2.9385,2.9499,2.9498,2.9497,2.9497,2.9496,2.9362,2.9389,2.9398,2.9423,2.9432,2.9446,2.9469,2.9469,2.9492,2.9515,2.9507,2.9538,2.9548,2.9574,2.9582,2.9606,2.9589,2.9604,2.9607,2.961,2.9614,2.9511,2.961,2.961,2.9609,2.9609,2.9609,0,2.9468,2.9472,2.9495,2.9515,2.9534,2.9514,2.9529,2.9546,2.9574,2.9585,2.9604,2.9635,2.9659,2.966,2.9682,2.9701,2.9693,2.9707,2.9705,2.9706,2.9628,2.9617,2.9713,2.9713,2.9713,2.9713,2.9713,2.9713,2.9525,2.9567,2.9562,2.9608,2.9611,2.9641,2.9651,2.9662,2.967,2.9705,2.9724,2.9724,2.9731,2.9752,2.9773,2.9772,2.9781,2.9798,2.9794,2.9722,2.9711,2.9702,2.9691,2.98,2.98,2.9869,2.987,2.987]}]]